User: anonymous   Login
Location: Dover
(39.1580°N, 75.5250°W)
Time: 07:39:50
(UTC-04:00)
Language:

Cosmos 1437 Rocket - Orbit

View from above orbital plane
View from above orbital plane
View from above satellite
View from above satellite

Ground track
Ground track

The orbit data is extracted from the following two-line orbital elements,

1 13771U 83003B   15107.42967425  .00003744  00000-0  23847-3 0  9991
2 13771 081.1564 195.0663 0032257 106.1640 254.3138 15.08092731754371
Epoch (UTC): 17 April 2015 10:18:43
Eccentricity: 0.0032257
inclination: 81.1564°
perigee height: 520 km
apogee height: 564 km
right ascension of ascending node: 195.0663°
argument of perigee: 106.1640°
revolutions per day: 15.08092731
mean anomaly at epoch: 254.3138°
orbit number at epoch: 75437

The dashed part of the orbit path shows where the satellite is in the earth's shadow,  

DLR